Tracking 18980 objects as of 20-Feb-2018
HD Live streaming from Space Station
objects crossing your sky now

FENGYUN 1C DEB

Track FENGYUN 1C DEB now!
10-day predictions


NORAD ID: 29958
Int'l Code: 1999-025KG
Perigee: 817.7 km
Apogee: 902.9 km
Inclination: 98.9 °
Period: 102.0 minutes
Semi major axis: 7231 km
RCS: 0.1257 m2 (medium)
Launch date: May 10, 1999
Source: People's Republic of China (PRC)
Launch site: Taiyaun Space Center, China (TSC)

Note: This is SATELLITE DEBRIS
aabbcc
Your satellite tracking list
Your tracking list is empty




NASA's NSSDC Master Catalog

Two Line Element Set (TLE):
1 29958U 99025KG  18050.95369715 +.00000074 +00000-0 +63988-4 0  9996
2 29958 098.9412 080.2002 0058958 148.2984 212.1760 14.11817356571763
Source of the keplerian elements: AFSPC